Weather History for KGLY - January, 2013

Change the Weather History Date:

Sunday, January 27, 2013

  Actual Average (KDMO) Record (KDMO)
Temperature  
Mean Temperature 52 °F 32 °F  
Max Temperature 64 °F 41 °F - ()
Min Temperature 39 °F 24 °F - ()
Degree Days  
Heating Degree Days 14 33  
Month to date heating degree days 908  
Since 1 July heating degree days 2689  
Cooling Degree Days 0 0  
Month to date cooling degree days 0  
Year to date cooling degree days 0  
Growing Degree Days 2 (Base 50)    
Moisture  
Dew Point 45 °F    
Average Humidity 78    
Maximum Humidity 88    
Minimum Humidity 53    
Precipitation  
Precipitation 0.00 in 0.06 in - ()
Month to date precipitation 1.43  
Year to date precipitation 1.43  
Sea Level Pressure  
Sea Level Pressure 29.95 in    
Wind  
Wind Speed 10 mph (South)    
Max Wind Speed 20 mph    
Max Gust Speed 29 mph    
Visibility 8 miles    
Events Rain    
T = Trace of Precipitation, MM = Missing Value Source: NWS Daily Summary

Daily Weather History Graph

Daily Weather History Graph

Search for Another Location

Airport or City:

Trip Planner

Search our weather history database for the weather conditions in past years. The results will help you decide how hot, cold, wet, or windy it might be!

Date:

Astronomy

Jan. 27, 2013 Rise Set
Actual Time 7:23 AM CST 5:31 PM CST
Civil Twilight 6:55 AM CST 6:00 PM CST
Nautical Twilight 6:23 AM CST 6:31 PM CST
Astronomical Twilight 5:52 AM CST 7:03 PM CST
Moon 6:25 PM CST (1/27) 7:18 AM CST (1/27)
Length of Visible Light 11h 04m
Length of Day
10h 08m
Full, 100% of the Moon is Illuminated
Jan 27
Full
Feb 3
Last Quarter
Feb 10
New
Feb 17
First Quarter
Feb 25
Full

Hourly Weather History & Observations

Time (CST) Temp. Windchill Dew Point Humidity Pressure Visibility Wind Dir Wind Speed Gust Speed Precip Events Conditions
12:15 AM 44.6 °F 39.7 °F 28.4 °F 53% 30.14 in 10.0 mi SE 9.2 mph - N/A   Overcast
12:35 AM 44.6 °F 39.7 °F 28.4 °F 53% 30.13 in 10.0 mi SE 9.2 mph - N/A   Overcast
12:55 AM 44.6 °F 40.2 °F 30.2 °F 57% 30.13 in 8.0 mi SE 8.1 mph - N/A Rain Light Rain
1:15 AM 42.8 °F 38.6 °F 32.0 °F 66% 30.13 in 5.0 mi SE 6.9 mph - N/A Rain Light Rain
1:35 AM 42.8 °F 39.3 °F 33.8 °F 70% 30.12 in 5.0 mi SE 5.8 mph - N/A Rain Light Rain
1:55 AM 41.0 °F - 33.8 °F 76% 30.12 in 5.0 mi Calm Calm - N/A Rain Light Rain
2:15 AM 41.0 °F 36.4 °F 35.6 °F 81% 30.13 in 5.0 mi SSE 6.9 mph - N/A Rain Light Rain
2:35 AM 39.2 °F - 35.6 °F 87% 30.13 in 5.0 mi Calm Calm - N/A Rain Light Rain
2:55 AM 39.2 °F 34.2 °F 35.6 °F 87% 30.12 in 4.0 mi SE 6.9 mph - N/A Rain Light Rain
3:15 AM 39.2 °F 33.0 °F 35.6 °F 87% 30.11 in 5.0 mi SSE 9.2 mph - N/A Rain Light Rain
3:35 AM 39.2 °F 33.0 °F 35.6 °F 87% 30.09 in 6.0 mi SE 9.2 mph - N/A Rain Light Rain
3:55 AM 39.2 °F 32.5 °F 35.6 °F 87% 30.06 in 8.0 mi SE 10.4 mph - N/A   Mostly Cloudy
4:15 AM 39.2 °F 31.6 °F 35.6 °F 87% 30.03 in 10.0 mi SE 12.7 mph - N/A   Mostly Cloudy
4:35 AM 41.0 °F 35.2 °F 37.4 °F 87% 30.05 in 10.0 mi SSE 9.2 mph 17.3 mph N/A   Mostly Cloudy
4:55 AM 41.0 °F 35.2 °F 37.4 °F 87% 30.05 in 9.0 mi SSE 9.2 mph - N/A   Mostly Cloudy
5:15 AM 41.0 °F 35.8 °F 37.4 °F 87% 30.06 in 9.0 mi SSE 8.1 mph - N/A   Mostly Cloudy
5:35 AM 42.8 °F 38.0 °F 37.4 °F 81% 30.05 in 9.0 mi SSE 8.1 mph - N/A   Overcast
5:55 AM 42.8 °F 38.0 °F 37.4 °F 81% 30.04 in 10.0 mi SE 8.1 mph - N/A   Overcast
6:15 AM 42.8 °F 38.0 °F 37.4 °F 81% 30.03 in 9.0 mi SE 8.1 mph - N/A   Overcast
6:35 AM 42.8 °F 37.5 °F 37.4 °F 81% 30.03 in 8.0 mi SE 9.2 mph - N/A   Overcast
6:55 AM 42.8 °F 37.5 °F 37.4 °F 81% 30.03 in 8.0 mi SE 9.2 mph - N/A   Overcast
7:15 AM 42.8 °F 37.0 °F 39.2 °F 87% 30.03 in 8.0 mi SSE 10.4 mph - N/A   Overcast
7:35 AM 44.6 °F 38.4 °F 39.2 °F 81% 30.01 in 7.0 mi SE 12.7 mph - N/A   Overcast
7:55 AM 44.6 °F 39.2 °F 39.2 °F 81% 30.01 in 6.0 mi SSE 10.4 mph 17.3 mph N/A   Haze
8:15 AM 44.6 °F 38.8 °F 39.2 °F 81% 30.01 in 7.0 mi SSE 11.5 mph - N/A   Overcast
8:35 AM 44.6 °F 37.8 °F 41.0 °F 87% 29.99 in 5.0 mi SE 15.0 mph 18.4 mph N/A   Overcast
8:55 AM 46.4 °F 40.7 °F 41.0 °F 81% 29.99 in 6.0 mi SSE 12.7 mph - N/A   Haze
9:15 AM 46.4 °F 40.4 °F 42.8 °F 87% 29.99 in 5.0 mi South 13.8 mph 17.3 mph N/A   Haze
9:35 AM 48.2 °F - 42.8 °F 82% 29.98 in 5.0 mi SSE 18.4 mph - N/A   Light Drizzle
9:55 AM 48.2 °F - 44.6 °F 87% 29.98 in 6.0 mi South 12.7 mph - N/A   Scattered Clouds
10:15 AM 50.0 °F - 44.6 °F 82% 29.97 in 6.0 mi South 12.7 mph 19.6 mph N/A   Haze
10:35 AM 50.0 °F - 44.6 °F 82% 29.97 in 6.0 mi South 11.5 mph 17.3 mph N/A   Haze
10:55 AM 51.8 °F - 46.4 °F 82% 29.97 in 6.0 mi South 15.0 mph 21.9 mph N/A   Haze
11:15 AM 51.8 °F - 46.4 °F 82% 29.95 in 7.0 mi South 16.1 mph 24.2 mph N/A   Scattered Clouds
11:35 AM 53.6 °F - 46.4 °F 77% 29.93 in 7.0 mi South 18.4 mph 26.5 mph N/A   Scattered Clouds
11:55 AM 53.6 °F - 46.4 °F 77% 29.93 in 7.0 mi South 12.7 mph 23.0 mph N/A   Partly Cloudy
12:15 PM 53.6 °F - 46.4 °F 77% 29.91 in 7.0 mi South 17.3 mph 25.3 mph N/A   Clear
12:35 PM 53.6 °F - 46.4 °F 77% 29.90 in 7.0 mi South 13.8 mph 24.2 mph N/A   Clear
12:55 PM 53.6 °F - 48.2 °F 82% 29.90 in 7.0 mi South 15.0 mph 20.7 mph N/A   Clear
1:15 PM 55.4 °F - 48.2 °F 77% 29.89 in 7.0 mi South 12.7 mph 16.1 mph N/A   Clear
1:35 PM 57.2 °F - 48.2 °F 72% 29.87 in 7.0 mi South 11.5 mph - N/A   Clear
1:55 PM 57.2 °F - 48.2 °F 72% 29.86 in 7.0 mi South 15.0 mph 20.7 mph N/A   Clear
2:15 PM 57.2 °F - 48.2 °F 72% 29.85 in 8.0 mi South 11.5 mph 17.3 mph N/A   Clear
2:35 PM 60.8 °F - 50.0 °F 68% 29.84 in 8.0 mi South 12.7 mph 17.3 mph N/A   Clear
2:55 PM 62.6 °F - 51.8 °F 68% 29.84 in 8.0 mi South 13.8 mph 19.6 mph N/A   Clear
3:15 PM 64.4 °F - 51.8 °F 64% 29.84 in 10.0 mi South 17.3 mph 24.2 mph N/A   Clear
3:35 PM 64.4 °F - 51.8 °F 64% 29.84 in 9.0 mi SSW 19.6 mph 28.8 mph N/A   Clear
3:55 PM 62.6 °F - 51.8 °F 68% 29.84 in 9.0 mi South 17.3 mph 26.5 mph N/A   Clear
4:15 PM 62.6 °F - 51.8 °F 68% 29.83 in 9.0 mi SSW 16.1 mph 23.0 mph N/A   Clear
4:35 PM 62.6 °F - 51.8 °F 68% 29.83 in 9.0 mi SSW 10.4 mph 25.3 mph N/A   Partly Cloudy
4:55 PM 62.6 °F - 51.8 °F 68% 29.84 in 10.0 mi SSW 12.7 mph 24.2 mph N/A   Clear
5:15 PM 60.8 °F - 51.8 °F 72% 29.83 in 9.0 mi South 11.5 mph 21.9 mph N/A   Clear
5:35 PM 60.8 °F - 51.8 °F 72% 29.84 in 9.0 mi South 9.2 mph - N/A   Scattered Clouds
5:55 PM 59.0 °F - 51.8 °F 77% 29.84 in 10.0 mi SSE 9.2 mph - N/A   Partly Cloudy
6:15 PM 57.2 °F - 51.8 °F 82% 29.84 in 10.0 mi South 6.9 mph - N/A   Partly Cloudy
6:35 PM 55.4 °F - 51.8 °F 88% 29.85 in 10.0 mi South 11.5 mph - N/A   Mostly Cloudy
6:55 PM 55.4 °F - 51.8 °F 88% 29.86 in 10.0 mi South 10.4 mph - N/A   Overcast
7:15 PM 57.2 °F - 51.8 °F 82% 29.86 in 10.0 mi South 11.5 mph - N/A   Overcast
7:35 PM 57.2 °F - 51.8 °F 82% 29.86 in 10.0 mi South 8.1 mph 16.1 mph N/A   Overcast
7:55 PM 59.0 °F - 51.8 °F 77% 29.87 in 10.0 mi South 11.5 mph - N/A   Overcast
8:15 PM 60.8 °F - 53.6 °F 77% 29.87 in 10.0 mi SSW 16.1 mph 25.3 mph N/A   Overcast
8:35 PM 60.8 °F - 53.6 °F 77% 29.87 in 10.0 mi SSW 13.8 mph 20.7 mph N/A   Overcast
8:55 PM 60.8 °F - 53.6 °F 77% 29.86 in 10.0 mi SSW 13.8 mph 23.0 mph N/A   Overcast
9:15 PM 60.8 °F - 53.6 °F 77% 29.87 in 10.0 mi SSW 11.5 mph 20.7 mph N/A   Overcast
9:35 PM 60.8 °F - 53.6 °F 77% 29.87 in 9.0 mi SSW 11.5 mph 17.3 mph N/A   Overcast
9:55 PM 60.8 °F - 53.6 °F 77% 29.87 in 10.0 mi SSW 11.5 mph 17.3 mph N/A   Overcast
10:15 PM 60.8 °F - 53.6 °F 77% 29.87 in 10.0 mi SSW 11.5 mph 18.4 mph N/A   Overcast
10:35 PM 62.6 °F - 55.4 °F 77% 29.87 in 9.0 mi SSW 9.2 mph 19.6 mph N/A   Overcast
10:55 PM 62.6 °F - 55.4 °F 77% 29.88 in 9.0 mi SSW 10.4 mph - N/A   Overcast
11:15 PM 62.6 °F - 55.4 °F 77% 29.88 in 8.0 mi SSW 10.4 mph - N/A   Overcast
11:35 PM 62.6 °F - 55.4 °F 77% 29.88 in 9.0 mi South 4.6 mph - N/A   Overcast
11:55 PM 60.8 °F - 55.4 °F 82% 29.89 in 9.0 mi SSW 6.9 mph - N/A   Overcast